Time,TemperatureF,DewpointF,PressureIn,WindDirection,WindDirectionDegrees,WindSpeedMPH,WindSpeedGustMPH,Humidity,HourlyPrecipIn,Conditions,Clouds,dailyrainin,SolarRadiationWatts/m^2,SoftwareType,DateUTC
2013-02-12 00:10:00,32.8,30.5,23.10,WSW,241,0.0,0.0,91,0.00,,,0.00,0,Wunderground v.1.15,2013-02-12 05:10:00,
2013-02-12 00:20:00,33.0,30.7,23.10,SW,229,0.0,0.0,91,0.00,,,0.00,0,Wunderground v.1.15,2013-02-12 05:20:00,
2013-02-12 00:30:00,32.8,30.5,23.10,WSW,248,0.0,0.0,91,0.00,,,0.00,0,Wunderground v.1.15,2013-02-12 05:30:00,
2013-02-12 00:40:00,33.0,30.7,23.10,WNW,298,0.0,0.0,91,0.00,,,0.00,0,Wunderground v.1.15,2013-02-12 05:40:00,
2013-02-12 00:50:00,33.0,30.4,23.10,WSW,257,0.0,0.0,90,0.00,,,0.00,0,Wunderground v.1.15,2013-02-12 05:50:00,
2013-02-12 01:10:00,33.1,30.5,23.10,WSW,238,0.0,0.0,90,0.00,,,0.00,0,Wunderground v.1.15,2013-02-12 06:10:00,
2013-02-12 01:20:00,33.1,30.5,23.10,SW,234,0.0,0.0,90,0.00,,,0.00,0,Wunderground v.1.15,2013-02-12 06:20:00,
2013-02-12 01:39:00,33.1,29.9,23.10,WSW,249,0.0,0.0,88,0.00,,,0.00,0,Wunderground v.1.15,2013-02-12 06:39:00,
2013-02-12 01:50:00,33.1,29.7,23.10,WSW,240,0.0,0.0,87,0.00,,,0.00,0,Wunderground v.1.15,2013-02-12 06:50:00,
2013-02-12 02:00:00,33.3,29.8,23.10,WSW,252,0.0,0.0,87,0.00,,,0.00,0,Wunderground v.1.15,2013-02-12 07:00:00,
2013-02-12 02:09:00,33.3,29.6,23.10,SW,221,0.0,0.0,86,0.00,,,0.00,0,Wunderground v.1.15,2013-02-12 07:09:00,
2013-02-12 02:20:00,33.3,29.6,23.10,SW,218,0.0,0.0,86,0.00,,,0.00,0,Wunderground v.1.15,2013-02-12 07:20:00,
2013-02-12 02:30:00,33.1,29.4,23.10,WSW,238,0.0,0.0,86,0.00,,,0.00,0,Wunderground v.1.15,2013-02-12 07:30:00,
2013-02-12 02:40:00,33.3,29.6,23.10,WSW,248,0.0,0.0,86,0.00,,,0.00,0,Wunderground v.1.15,2013-02-12 07:40:00,
2013-02-12 02:50:00,33.1,29.1,23.10,South,188,0.0,0.0,85,0.00,,,0.00,0,Wunderground v.1.15,2013-02-12 07:50:00,
2013-02-12 03:10:00,33.1,29.1,23.10,WSW,249,0.0,0.0,85,0.00,,,0.00,0,Wunderground v.1.15,2013-02-12 08:10:00,
2013-02-12 03:20:00,33.1,29.1,23.10,WNW,284,0.0,0.0,85,0.00,,,0.00,0,Wunderground v.1.15,2013-02-12 08:20:00,
2013-02-12 03:40:00,33.1,29.1,23.10,SW,233,0.0,0.0,85,0.00,,,0.00,0,Wunderground v.1.15,2013-02-12 08:40:00,
2013-02-12 03:50:00,33.0,29.3,23.10,SSW,200,0.0,0.0,86,0.00,,,0.00,0,Wunderground v.1.15,2013-02-12 08:50:00,
2013-02-12 04:10:00,32.8,29.4,23.10,WSW,238,0.0,0.0,87,0.00,,,0.00,0,Wunderground v.1.15,2013-02-12 09:10:00,
2013-02-12 04:19:00,32.8,29.4,23.10,SW,224,0.0,0.0,87,0.00,,,0.00,0,Wunderground v.1.15,2013-02-12 09:19:00,
2013-02-12 04:40:00,32.8,29.6,23.10,South,169,0.0,0.0,88,0.00,,,0.00,0,Wunderground v.1.15,2013-02-12 09:40:00,
2013-02-12 04:50:00,32.7,29.5,23.10,SW,234,0.0,0.0,88,0.00,,,0.00,0,Wunderground v.1.15,2013-02-12 09:50:00,
2013-02-12 05:10:00,32.7,29.8,23.10,SW,221,0.0,0.0,89,0.00,,,0.00,0,Wunderground v.1.15,2013-02-12 10:10:00,
2013-02-12 05:20:00,32.6,29.7,23.10,SW,224,0.0,0.0,89,0.00,,,0.00,0,Wunderground v.1.15,2013-02-12 10:20:00,
2013-02-12 05:40:00,32.6,29.7,23.09,SSW,205,0.0,0.0,89,0.00,,,0.00,0,Wunderground v.1.15,2013-02-12 10:40:00,
2013-02-12 05:50:00,32.7,30.1,23.10,West,266,0.0,0.0,90,0.00,,,0.00,0,Wunderground v.1.15,2013-02-12 10:50:00,
2013-02-12 06:10:00,32.8,29.9,23.10,WSW,244,0.0,0.0,89,0.00,,,0.00,0,Wunderground v.1.15,2013-02-12 11:10:00,
2013-02-12 06:20:00,32.8,29.9,23.10,West,269,0.0,2.0,89,0.00,,,0.00,0,Wunderground v.1.15,2013-02-12 11:20:00,
2013-02-12 06:40:00,33.0,30.1,23.10,SW,228,0.0,0.0,89,0.00,,,0.00,0,Wunderground v.1.15,2013-02-12 11:40:00,
2013-02-12 06:50:00,33.1,30.2,23.10,WSW,242,0.0,1.0,89,0.00,,,0.00,0,Wunderground v.1.15,2013-02-12 11:50:00,
2013-02-12 07:00:00,33.3,30.1,23.10,WSW,254,0.0,0.0,88,0.00,,,0.00,0,Wunderground v.1.15,2013-02-12 12:00:00,
2013-02-12 07:10:00,33.3,30.1,23.10,West,262,0.0,0.0,88,0.00,,,0.00,7,Wunderground v.1.15,2013-02-12 12:10:00,
2013-02-12 07:20:00,33.3,30.1,23.10,SW,225,0.0,0.0,88,0.00,,,0.00,12,Wunderground v.1.15,2013-02-12 12:20:00,
2013-02-12 07:40:00,33.4,29.9,23.10,WNW,285,0.0,0.0,87,0.00,,,0.00,25,Wunderground v.1.15,2013-02-12 12:40:00,
2013-02-12 07:50:00,33.4,29.9,23.10,WNW,283,1.0,4.0,87,0.00,,,0.00,19,Wunderground v.1.15,2013-02-12 12:50:00,
2013-02-12 08:00:00,33.4,29.9,23.10,SSW,205,4.0,4.0,87,0.00,,,0.00,26,Wunderground v.1.15,2013-02-12 13:00:00,
2013-02-12 08:10:00,33.6,30.1,23.10,SSW,211,4.0,4.0,87,0.00,,,0.00,33,Wunderground v.1.15,2013-02-12 13:10:00,
2013-02-12 08:20:00,33.6,30.1,23.10,WNW,297,2.0,3.0,87,0.00,,,0.00,53,Wunderground v.1.15,2013-02-12 13:20:00,
2013-02-12 08:40:00,33.9,30.4,23.10,WNW,289,3.0,4.0,87,0.00,,,0.00,88,Wunderground v.1.15,2013-02-12 13:40:00,
2013-02-12 08:50:00,33.9,30.4,23.11,WSW,241,6.0,7.0,87,0.00,,,0.00,111,Wunderground v.1.15,2013-02-12 13:50:00,
2013-02-12 09:00:00,34.2,30.4,23.11,SW,233,2.0,11.0,86,0.00,,,0.00,104,Wunderground v.1.15,2013-02-12 14:00:00,
2013-02-12 09:10:00,34.2,30.4,23.11,West,273,6.0,6.0,86,0.00,,,0.00,149,Wunderground v.1.15,2013-02-12 14:10:00,
2013-02-12 09:20:00,34.5,30.5,23.11,WSW,252,6.0,13.0,85,0.00,,,0.00,185,Wunderground v.1.15,2013-02-12 14:20:00,
2013-02-12 09:40:00,34.8,30.5,23.11,NW,306,7.0,7.0,84,0.00,,,0.00,197,Wunderground v.1.15,2013-02-12 14:40:00,
2013-02-12 09:50:00,34.9,30.6,23.11,WNW,303,6.0,6.0,84,0.00,,,0.00,197,Wunderground v.1.15,2013-02-12 14:50:00,
2013-02-12 10:09:00,35.4,30.8,23.11,West,269,6.0,7.0,83,0.00,,,0.00,251,Wunderground v.1.15,2013-02-12 15:09:00,
2013-02-12 10:20:00,35.5,30.8,23.11,SW,217,6.0,6.0,83,0.00,,,0.00,200,Wunderground v.1.15,2013-02-12 15:20:00,
2013-02-12 10:39:00,35.7,31.0,23.11,SW,225,6.0,6.0,83,0.00,,,0.00,265,Wunderground v.1.15,2013-02-12 15:39:00,
2013-02-12 10:50:00,35.9,30.9,23.11,WSW,257,7.0,7.0,82,0.00,,,0.00,285,Wunderground v.1.15,2013-02-12 15:50:00,
2013-02-12 11:00:00,36.1,30.8,23.11,WSW,248,6.0,7.0,81,0.00,,,0.00,229,Wunderground v.1.15,2013-02-12 16:00:00,
2013-02-12 11:10:00,35.9,30.6,23.11,WNW,290,6.0,10.0,81,0.00,,,0.00,192,Wunderground v.1.15,2013-02-12 16:10:00,
2013-02-12 11:20:00,35.8,30.8,23.12,SW,233,6.0,6.0,82,0.00,,,0.00,148,Wunderground v.1.15,2013-02-12 16:20:00,
2013-02-12 11:30:00,35.4,30.8,23.12,West,263,6.0,10.0,83,0.00,,,0.00,141,Wunderground v.1.15,2013-02-12 16:30:00,
2013-02-12 11:40:00,35.2,30.9,23.12,SW,230,6.0,6.0,84,0.00,,,0.00,148,Wunderground v.1.15,2013-02-12 16:40:00,
2013-02-12 11:50:00,35.2,30.9,23.12,WSW,238,4.0,7.0,84,0.00,,,0.00,171,Wunderground v.1.15,2013-02-12 16:50:00,
2013-02-12 12:00:00,35.1,31.0,23.12,SW,225,6.0,6.0,85,0.00,,,0.00,130,Wunderground v.1.15,2013-02-12 17:00:00,
2013-02-12 12:10:00,35.2,31.1,23.12,SW,219,3.0,8.0,85,0.00,,,0.00,123,Wunderground v.1.15,2013-02-12 17:10:00,
2013-02-12 12:20:00,35.2,30.9,23.12,West,277,4.0,4.0,84,0.00,,,0.00,102,Wunderground v.1.15,2013-02-12 17:20:00,
2013-02-12 12:39:00,35.5,30.5,23.12,NW,315,5.0,6.0,82,0.00,,,0.00,216,Wunderground v.1.15,2013-02-12 17:39:00,
2013-02-12 12:50:00,36.9,30.0,23.12,NW,311,6.0,11.0,76,0.00,,,0.00,680,Wunderground v.1.15,2013-02-12 17:50:00,
2013-02-12 13:10:00,36.9,27.0,23.12,WNW,284,6.0,7.0,67,0.00,,,0.00,195,Wunderground v.1.15,2013-02-12 18:10:00,
2013-02-12 13:20:00,37.1,26.8,23.13,West,275,6.0,11.0,66,0.00,,,0.00,255,Wunderground v.1.15,2013-02-12 18:20:00,
2013-02-12 13:40:00,36.5,26.2,23.13,NW,309,6.0,8.0,66,0.00,,,0.00,148,Wunderground v.1.15,2013-02-12 18:40:00,
2013-02-12 13:50:00,35.9,26.7,23.13,WNW,300,6.0,7.0,69,0.00,,,0.00,178,Wunderground v.1.15,2013-02-12 18:50:00,
2013-02-12 14:00:00,35.8,26.3,23.13,WNW,287,7.0,11.0,68,0.00,,,0.00,125,Wunderground v.1.15,2013-02-12 19:00:00,
2013-02-12 14:10:00,35.8,25.9,23.13,WNW,295,8.0,8.0,67,0.00,,,0.00,176,Wunderground v.1.15,2013-02-12 19:10:00,
2013-02-12 14:19:00,36.1,26.2,23.13,West,275,8.0,13.0,67,0.00,,,0.00,206,Wunderground v.1.15,2013-02-12 19:19:00,
2013-02-12 14:40:00,36.1,26.6,23.13,WNW,297,6.0,6.0,68,0.00,,,0.00,185,Wunderground v.1.15,2013-02-12 19:40:00,
2013-02-12 14:50:00,35.9,26.4,23.13,NNE,16,6.0,9.0,68,0.00,,,0.00,123,Wunderground v.1.15,2013-02-12 19:50:00,
2013-02-12 15:10:00,35.8,26.3,23.13,WNW,294,7.0,9.0,68,0.00,,,0.00,72,Wunderground v.1.15,2013-02-12 20:10:00,
2013-02-12 15:20:00,35.8,26.3,23.13,WNW,301,6.0,6.0,68,0.00,,,0.00,70,Wunderground v.1.15,2013-02-12 20:20:00,
2013-02-12 15:30:00,35.8,25.9,23.13,WSW,248,8.0,8.0,67,0.00,,,0.00,56,Wunderground v.1.15,2013-02-12 20:30:00,
2013-02-12 15:40:00,35.7,26.2,23.13,WNW,297,5.0,5.0,68,0.00,,,0.00,42,Wunderground v.1.15,2013-02-12 20:40:00,
2013-02-12 15:50:00,35.4,26.2,23.13,NW,309,7.0,7.0,69,0.00,,,0.00,32,Wunderground v.1.15,2013-02-12 20:50:00,
2013-02-12 16:10:00,35.1,26.6,23.13,West,265,4.0,4.0,71,0.00,,,0.00,25,Wunderground v.1.15,2013-02-12 21:10:00,
2013-02-12 16:19:00,34.9,26.8,23.13,WNW,298,4.0,4.0,72,0.00,,,0.00,18,Wunderground v.1.15,2013-02-12 21:19:00,
2013-02-12 16:40:00,34.8,25.7,23.13,North,351,8.0,8.0,69,0.00,,,0.00,11,Wunderground v.1.15,2013-02-12 21:40:00,
2013-02-12 16:50:00,34.6,25.5,23.13,West,259,8.0,8.0,69,0.00,,,0.00,7,Wunderground v.1.15,2013-02-12 21:50:00,
2013-02-12 17:10:00,34.5,25.0,23.14,WNW,284,6.0,7.0,68,0.00,,,0.00,0,Wunderground v.1.15,2013-02-12 22:10:00,
2013-02-12 17:20:00,34.3,24.8,23.14,NW,309,7.0,8.0,68,0.00,,,0.00,0,Wunderground v.1.15,2013-02-12 22:20:00,
2013-02-12 17:40:00,34.2,25.1,23.14,West,270,7.0,7.0,69,0.00,,,0.00,0,Wunderground v.1.15,2013-02-12 22:40:00,
2013-02-12 17:50:00,34.0,24.9,23.14,WSW,253,8.0,8.0,69,0.00,,,0.00,0,Wunderground v.1.15,2013-02-12 22:50:00,
2013-02-12 18:10:00,33.6,25.2,23.14,NNW,331,6.0,7.0,71,0.00,,,0.00,0,Wunderground v.1.15,2013-02-12 23:10:00,
2013-02-12 18:20:00,33.4,25.0,23.14,NNW,336,6.0,6.0,71,0.00,,,0.00,0,Wunderground v.1.15,2013-02-12 23:20:00,
2013-02-12 18:40:00,33.1,24.4,23.15,WNW,300,5.0,5.0,70,0.00,,,0.00,0,Wunderground v.1.15,2013-02-12 23:40:00,
2013-02-12 18:50:00,33.0,23.9,23.15,WNW,294,5.0,5.0,69,0.00,,,0.00,0,Wunderground v.1.15,2013-02-12 23:50:00,
2013-02-12 19:10:00,32.6,22.8,23.15,North,360,6.0,6.0,67,0.00,,,0.00,0,Wunderground v.1.15,2013-02-13 00:10:00,
2013-02-12 19:20:00,32.4,22.7,23.15,NW,315,6.0,6.0,67,0.00,,,0.00,0,Wunderground v.1.15,2013-02-13 00:20:00,
2013-02-12 19:30:00,32.3,22.9,23.15,WNW,292,5.0,5.0,68,0.00,,,0.00,0,Wunderground v.1.15,2013-02-13 00:30:00,
2013-02-12 19:40:00,32.1,22.4,23.15,WNW,298,5.0,6.0,67,0.00,,,0.00,0,Wunderground v.1.15,2013-02-13 00:40:00,
2013-02-12 19:50:00,32.0,22.6,23.15,NNE,15,5.0,5.0,68,0.00,,,0.00,0,Wunderground v.1.15,2013-02-13 00:50:00,
2013-02-12 20:00:00,31.8,22.4,23.15,WNW,303,4.0,6.0,68,0.00,,,0.00,0,Wunderground v.1.15,2013-02-13 01:00:00,
2013-02-12 20:10:00,31.8,22.4,23.15,WSW,244,5.0,5.0,68,0.00,,,0.00,0,Wunderground v.1.15,2013-02-13 01:10:00,
2013-02-12 20:20:00,31.7,22.3,23.15,NNW,334,4.0,6.0,68,0.00,,,0.00,0,Wunderground v.1.15,2013-02-13 01:20:00,
2013-02-12 20:30:00,31.7,22.7,23.15,WNW,294,4.0,4.0,69,0.00,,,0.00,0,Wunderground v.1.15,2013-02-13 01:30:00,
2013-02-12 20:40:00,31.5,22.5,23.15,WNW,292,3.0,3.0,69,0.00,,,0.00,0,Wunderground v.1.15,2013-02-13 01:40:00,
2013-02-12 20:50:00,31.4,22.4,23.16,WNW,293,4.0,4.0,69,0.00,,,0.00,0,Wunderground v.1.15,2013-02-13 01:50:00,
2013-02-12 21:00:00,31.2,22.2,23.16,NW,320,4.0,4.0,69,0.00,,,0.00,0,Wunderground v.1.15,2013-02-13 02:00:00,
2013-02-12 21:10:00,31.2,22.2,23.16,SW,219,3.0,7.0,69,0.00,,,0.00,0,Wunderground v.1.15,2013-02-13 02:10:00,
2013-02-12 21:20:00,31.1,22.1,23.16,West,269,4.0,6.0,69,0.00,,,0.00,0,Wunderground v.1.15,2013-02-13 02:20:00,
2013-02-12 21:39:00,30.8,21.8,23.16,WNW,292,4.0,4.0,69,0.00,,,0.00,0,Wunderground v.1.15,2013-02-13 02:39:00,
2013-02-12 21:50:00,30.8,21.8,23.16,WNW,284,4.0,5.0,69,0.00,,,0.00,0,Wunderground v.1.15,2013-02-13 02:50:00,
2013-02-12 22:00:00,30.6,21.6,23.16,NW,321,4.0,5.0,69,0.00,,,0.00,0,Wunderground v.1.15,2013-02-13 03:00:00,
2013-02-12 22:10:00,30.6,21.6,23.16,WNW,296,5.0,5.0,69,0.00,,,0.00,0,Wunderground v.1.15,2013-02-13 03:10:00,
2013-02-12 22:20:00,30.5,21.5,23.16,NNW,330,6.0,6.0,69,0.00,,,0.00,0,Wunderground v.1.15,2013-02-13 03:20:00,
2013-02-12 22:40:00,30.3,21.0,23.16,WNW,300,6.0,6.0,68,0.00,,,0.00,0,Wunderground v.1.15,2013-02-13 03:40:00,
2013-02-12 22:50:00,30.3,21.0,23.16,West,281,6.0,6.0,68,0.00,,,0.00,0,Wunderground v.1.15,2013-02-13 03:50:00,
2013-02-12 23:00:00,30.2,20.9,23.16,SW,230,5.0,5.0,68,0.00,,,0.00,0,Wunderground v.1.15,2013-02-13 04:00:00,
2013-02-12 23:10:00,30.2,20.6,23.16,NW,306,7.0,7.0,67,0.00,,,0.00,0,Wunderground v.1.15,2013-02-13 04:10:00,
2013-02-12 23:20:00,30.0,20.4,23.16,West,277,6.0,10.0,67,0.00,,,0.00,0,Wunderground v.1.15,2013-02-13 04:20:00,
2013-02-12 23:30:00,30.0,20.7,23.16,West,274,5.0,9.0,68,0.00,,,0.00,0,Wunderground v.1.15,2013-02-13 04:30:00,
2013-02-12 23:40:00,29.9,21.0,23.16,NW,311,4.0,6.0,69,0.00,,,0.00,0,Wunderground v.1.15,2013-02-13 04:40:00,
2013-02-12 23:50:00,29.7,20.8,23.16,WSW,253,3.0,4.0,69,0.00,,,0.00,0,Wunderground v.1.15,2013-02-13 04:50:00,